TimeEDT,TemperatureF,Dew PointF,Humidity,Sea Level PressureIn,VisibilityMPH,Wind Direction,Wind SpeedMPH,Gust SpeedMPH,PrecipitationIn,Events,Conditions,WindDirDegrees,DateUTC
12:54 AM,71.1,69.1,93,30.14,10.0,South,6.9,-,0.00,Rain,Light Rain,180,2013-07-06 04:54:00
1:54 AM,70.0,68.0,93,30.14,10.0,SSE,3.5,-,0.00,Rain,Light Rain,160,2013-07-06 05:54:00
2:54 AM,71.1,68.0,90,30.13,4.0,SSW,10.4,-,0.02,Rain,Heavy Rain,210,2013-07-06 06:54:00
3:02 AM,70.0,68.0,93,30.15,1.8,SW,11.5,-,0.11,Rain,Heavy Rain,220,2013-07-06 07:02:00
3:09 AM,70.0,66.9,90,30.14,3.0,WSW,8.1,-,0.16,Rain,Rain,240,2013-07-06 07:09:00
3:54 AM,69.1,66.9,93,30.12,10.0,SE,3.5,-,0.20,Rain,Light Rain,140,2013-07-06 07:54:00
4:54 AM,70.0,66.9,90,30.11,10.0,Calm,Calm,-,0.01,Rain,Light Rain,0,2013-07-06 08:54:00
5:06 AM,69.1,68.0,96,30.13,1.8,South,3.5,-,0.03,Rain,Heavy Rain,190,2013-07-06 09:06:00
5:20 AM,69.1,68.0,96,30.13,3.0,SE,3.5,-,0.25,Rain,Rain,140,2013-07-06 09:20:00
5:41 AM,69.1,68.0,96,30.12,2.5,Calm,Calm,-,0.31,Rain,Heavy Rain,0,2013-07-06 09:41:00
5:52 AM,69.8,68.0,94,30.12,5.0,East,3.5,-,0.35,Rain,Light Rain,90,2013-07-06 09:52:00
5:54 AM,70.0,68.0,93,30.10,7.0,East,3.5,-,0.35,Rain,Light Rain,90,2013-07-06 09:54:00
6:05 AM,70.0,68.0,93,30.12,2.5,ENE,3.5,-,0.04,Rain,Heavy Rain,70,2013-07-06 10:05:00
6:16 AM,70.0,68.0,93,30.12,4.0,East,6.9,-,0.09,Rain,Light Rain,100,2013-07-06 10:16:00
6:52 AM,69.8,68.0,94,30.13,3.0,East,5.8,-,0.19,Rain,Rain,100,2013-07-06 10:52:00
6:54 AM,70.0,68.0,93,30.10,3.0,East,5.8,-,0.19,Rain,Rain,100,2013-07-06 10:54:00
7:09 AM,70.0,68.0,93,30.12,4.0,East,5.8,-,0.05,Rain,Rain,90,2013-07-06 11:09:00
7:54 AM,70.0,68.0,93,30.10,10.0,East,8.1,-,0.09,Rain,Light Rain,100,2013-07-06 11:54:00
8:54 AM,71.1,68.0,90,30.09,7.0,ESE,12.7,-,0.03,Rain,Rain,110,2013-07-06 12:54:00
9:23 AM,71.1,68.0,90,30.11,6.0,SSE,13.8,-,0.03,Rain,Light Rain,150,2013-07-06 13:23:00
9:26 AM,71.1,68.0,90,30.12,1.0,SSE,15.0,23.0,0.04,Rain,Heavy Rain,160,2013-07-06 13:26:00
9:32 AM,71.1,68.0,90,30.12,1.0,SW,13.8,23.0,0.21,Rain,Heavy Rain,220,2013-07-06 13:32:00
9:39 AM,70.0,68.0,93,30.13,1.0,SSW,10.4,-,0.30,Rain,Rain,200,2013-07-06 13:39:00
9:54 AM,69.1,66.9,93,30.11,3.0,SSW,9.2,-,0.32,Rain,Light Rain,200,2013-07-06 13:54:00
10:51 AM,71.6,69.8,94,30.12,10.0,SSW,6.9,-,0.03,Rain,Light Rain,200,2013-07-06 14:51:00
10:54 AM,72.0,69.1,91,30.09,10.0,SSW,6.9,-,0.03,Rain,Light Rain,210,2013-07-06 14:54:00
11:54 AM,73.9,69.1,85,30.09,10.0,South,10.4,-,0.00,,Mostly Cloudy,170,2013-07-06 15:54:00
12:17 PM,73.0,68.0,84,30.12,10.0,SSW,9.2,-,N/A,,Overcast,200,2013-07-06 16:17:00
12:28 PM,73.0,69.1,87,30.12,10.0,SW,10.4,-,N/A,,Overcast,230,2013-07-06 16:28:00
12:54 PM,73.0,69.1,87,30.10,10.0,SW,11.5,-,N/A,,Overcast,220,2013-07-06 16:54:00
1:52 PM,75.2,68.0,78,30.12,10.0,SW,10.4,-,0.00,,Scattered Clouds,220,2013-07-06 17:52:00
1:54 PM,75.0,68.0,79,30.10,10.0,SW,8.1,-,0.00,,Scattered Clouds,230,2013-07-06 17:54:00
2:18 PM,75.0,68.0,79,30.12,10.0,SW,9.2,-,N/A,,Mostly Cloudy,220,2013-07-06 18:18:00
2:54 PM,73.9,66.9,79,30.10,10.0,SW,10.4,-,0.00,,Mostly Cloudy,230,2013-07-06 18:54:00
3:50 PM,71.6,66.2,83,30.13,10.0,WSW,8.1,-,0.01,Rain,Light Rain,250,2013-07-06 19:50:00
3:54 PM,71.1,66.9,87,30.11,10.0,WSW,9.2,-,0.01,Rain,Light Rain,250,2013-07-06 19:54:00
4:54 PM,70.0,66.0,87,30.13,10.0,SSW,6.9,-,0.03,Rain,Light Rain,210,2013-07-06 20:54:00
5:54 PM,70.0,66.0,87,30.09,10.0,SW,4.6,-,0.01,,Partly Cloudy,220,2013-07-06 21:54:00
6:54 PM,70.0,66.0,87,30.11,10.0,SW,6.9,-,0.00,Rain,Light Rain,220,2013-07-06 22:54:00
7:54 PM,70.0,66.9,90,30.12,10.0,SW,4.6,-,0.00,,Clear,220,2013-07-06 23:54:00
8:54 PM,69.1,66.9,93,30.11,10.0,South,3.5,-,N/A,,Clear,180,2013-07-07 00:54:00
9:49 PM,69.8,66.2,88,30.15,10.0,Calm,Calm,-,N/A,,Scattered Clouds,0,2013-07-07 01:49:00
9:54 PM,69.1,66.9,93,30.13,10.0,South,3.5,-,N/A,,Scattered Clouds,180,2013-07-07 01:54:00
10:54 PM,69.1,66.0,90,30.14,10.0,SSE,5.8,-,N/A,,Mostly Cloudy,160,2013-07-07 02:54:00
11:36 PM,69.1,66.0,90,30.15,10.0,South,4.6,-,N/A,,Overcast,180,2013-07-07 03:36:00
11:54 PM,68.0,66.0,93,30.13,10.0,SSE,4.6,-,0.00,Rain,Light Rain,160,2013-07-07 03:54:00